UAL693 PHKO-KSFO

Flight info

Callsign UAL693
Flight time 4h 33m
Altitude 39000
Route KOA V5 MYNAH V11 UPP CLUTS R465 CIVIT/N0469F410 R465 CINNY PIRAT3
Aircraft B772/H-SDE2E3FGHIJ5LORVWXY/LB1D1

Departure

Time 2026-05-08 16:01
Airport Ellison Onizuka Kona International Airport at Keāhole (PHKO)

Arrival

Time 2026-05-08 20:35
Airport San Francisco International Airport (KSFO)
Time Latitude Longitude Altitude Speed Heading
2026-05-08 15:33 19.73677 -156.04231 80 ft 0 kts 95°
2026-05-08 15:52 19.73677 -156.04234 79 ft 2 kts 95°
2026-05-08 15:53 19.73678 -156.04250 79 ft 2 kts 95°
2026-05-08 15:53 19.73680 -156.04266 78 ft 2 kts 95°
2026-05-08 15:53 19.73681 -156.04282 77 ft 2 kts 95°
2026-05-08 15:53 19.73682 -156.04292 77 ft 1 kts 95°
2026-05-08 15:54 19.73681 -156.04308 76 ft 2 kts 68°
2026-05-08 15:54 19.73674 -156.04321 76 ft 2 kts 40°
2026-05-08 15:54 19.73661 -156.04329 76 ft 2 kts 14°
2026-05-08 15:54 19.73654 -156.04330 76 ft 1 kts
2026-05-08 15:55 19.73653 -156.04330 76 ft 0 kts
2026-05-08 15:56 19.73656 -156.04330 76 ft 2 kts
2026-05-08 15:56 19.73698 -156.04326 76 ft 9 kts
2026-05-08 15:57 19.73785 -156.04317 75 ft 15 kts
2026-05-08 15:57 19.73907 -156.04306 75 ft 18 kts
2026-05-08 15:57 19.74042 -156.04294 75 ft 20 kts
2026-05-08 15:57 19.74185 -156.04280 75 ft 21 kts
2026-05-08 15:58 19.74328 -156.04269 74 ft 19 kts
2026-05-08 15:58 19.74470 -156.04256 75 ft 20 kts
2026-05-08 15:58 19.74615 -156.04244 75 ft 19 kts
2026-05-08 15:58 19.74752 -156.04231 76 ft 20 kts
2026-05-08 15:59 19.74894 -156.04219 77 ft 20 kts
2026-05-08 15:59 19.75040 -156.04207 77 ft 21 kts
2026-05-08 15:59 19.75179 -156.04195 78 ft 18 kts
2026-05-08 15:59 19.75307 -156.04187 78 ft 14 kts 351°
2026-05-08 16:00 19.75353 -156.04248 78 ft 12 kts 279°
2026-05-08 16:00 19.75360 -156.04347 78 ft 12 kts 274°
2026-05-08 16:00 19.75363 -156.04405 77 ft 7 kts 271°
2026-05-08 16:00 19.75330 -156.04436 77 ft 7 kts 190°
2026-05-08 16:01 19.75149 -156.04454 76 ft 61 kts 184°
2026-05-08 16:01 19.74469 -156.04512 73 ft 133 kts 185°
2026-05-08 16:01 19.73380 -156.04617 250 ft 170 kts 184°
2026-05-08 16:01 19.72194 -156.04741 953 ft 176 kts 185°
2026-05-08 16:02 19.70986 -156.04933 1606 ft 180 kts 201°
2026-05-08 16:02 19.69930 -156.05760 1879 ft 198 kts 239°
2026-05-08 16:02 19.69561 -156.07129 2381 ft 203 kts 275°
2026-05-08 16:02 19.69977 -156.08626 2743 ft 218 kts 302°
2026-05-08 16:03 19.70962 -156.09811 3343 ft 221 kts 328°
2026-05-08 16:03 19.72426 -156.10333 3832 ft 229 kts 359°
2026-05-08 16:03 19.74008 -156.10019 4406 ft 236 kts 17°
2026-05-08 16:03 19.75664 -156.09593 4799 ft 254 kts 13°
2026-05-08 16:04 19.77444 -156.09225 5277 ft 267 kts 10°
2026-05-08 16:04 19.79330 -156.08899 5953 ft 273 kts 10°
2026-05-08 16:04 19.81172 -156.08467 6624 ft 276 kts 23°
2026-05-08 16:04 19.82899 -156.07539 7293 ft 280 kts 31°
2026-05-08 16:05 19.84586 -156.06486 7980 ft 283 kts 31°
2026-05-08 16:05 19.86320 -156.05396 8639 ft 288 kts 31°
2026-05-08 16:05 19.88040 -156.04321 9270 ft 293 kts 31°
2026-05-08 16:05 19.89813 -156.03215 9937 ft 297 kts 31°
2026-05-08 16:06 19.91611 -156.02094 10446 ft 307 kts 31°
2026-05-08 16:06 19.93509 -156.00909 10809 ft 323 kts 31°
2026-05-08 16:06 19.95509 -155.99663 11227 ft 336 kts 31°
2026-05-08 16:06 19.97515 -155.98412 11872 ft 341 kts 31°
2026-05-08 16:07 19.99585 -155.97119 12576 ft 344 kts 31°
2026-05-08 16:07 20.01636 -155.95840 13299 ft 347 kts 31°
2026-05-08 16:07 20.03745 -155.94524 14027 ft 351 kts 31°
2026-05-08 16:07 20.05837 -155.93216 14733 ft 355 kts 31°
2026-05-08 16:08 20.07984 -155.91875 15464 ft 359 kts 31°
2026-05-08 16:08 20.10142 -155.90526 16200 ft 363 kts 31°
2026-05-08 16:08 20.12334 -155.89156 16915 ft 367 kts 31°
2026-05-08 16:08 20.14550 -155.87770 17630 ft 370 kts 31°
2026-05-08 16:09 20.16769 -155.86381 18266 ft 375 kts 31°
2026-05-08 16:09 20.19045 -155.84958 18898 ft 380 kts 30°
2026-05-08 16:09 20.21452 -155.83742 19544 ft 383 kts 21°
2026-05-08 16:09 20.23934 -155.82701 20181 ft 387 kts 20°
2026-05-08 16:10 20.26437 -155.81663 20813 ft 390 kts 20°
2026-05-08 16:10 20.28996 -155.80603 21426 ft 394 kts 20°
2026-05-08 16:10 20.31566 -155.79536 22060 ft 397 kts 20°
2026-05-08 16:10 20.34160 -155.78458 22665 ft 400 kts 20°
2026-05-08 16:11 20.36774 -155.77370 23206 ft 405 kts 19°
2026-05-08 16:11 20.39392 -155.76280 23689 ft 411 kts 19°
2026-05-08 16:11 20.42082 -155.75160 24226 ft 416 kts 18°
2026-05-08 16:11 20.44769 -155.74042 24789 ft 419 kts 18°
2026-05-08 16:12 20.47510 -155.72899 25341 ft 423 kts 18°
2026-05-08 16:12 20.50282 -155.71742 25851 ft 427 kts 17°
2026-05-08 16:12 20.53057 -155.70586 26375 ft 430 kts 17°
2026-05-08 16:12 20.55820 -155.69432 26895 ft 433 kts 17°
2026-05-08 16:13 20.58661 -155.68245 27392 ft 437 kts 17°
2026-05-08 16:13 20.61490 -155.67064 27857 ft 440 kts 16°
2026-05-08 16:13 20.64355 -155.65866 28291 ft 445 kts 16°
2026-05-08 16:13 20.67284 -155.64642 28704 ft 450 kts 16°
2026-05-08 16:14 20.70195 -155.63425 29204 ft 452 kts 16°
2026-05-08 16:14 20.73135 -155.62193 29713 ft 453 kts 16°
2026-05-08 16:14 20.76044 -155.60976 30174 ft 455 kts 15°
2026-05-08 16:14 20.79014 -155.59732 30648 ft 457 kts 15°
2026-05-08 16:15 20.82014 -155.58475 31084 ft 460 kts 15°
2026-05-08 16:15 20.84987 -155.57230 31473 ft 463 kts 15°
2026-05-08 16:15 20.87998 -155.55966 31888 ft 465 kts 15°
2026-05-08 16:15 20.91011 -155.54703 32326 ft 466 kts 15°
2026-05-08 16:16 20.94048 -155.53427 32730 ft 468 kts 15°
2026-05-08 16:16 20.97075 -155.52156 33155 ft 470 kts 15°
2026-05-08 16:16 21.00148 -155.50865 33522 ft 474 kts 14°
2026-05-08 16:16 21.03226 -155.49573 33856 ft 479 kts 14°
2026-05-08 16:17 21.06350 -155.48261 34170 ft 483 kts 14°
2026-05-08 16:17 21.09495 -155.46936 34607 ft 485 kts 14°
2026-05-08 16:17 21.12638 -155.45613 34992 ft 488 kts 14°
2026-05-08 16:17 21.15786 -155.44289 35465 ft 488 kts 14°
2026-05-08 16:18 21.18947 -155.42955 35968 ft 488 kts 14°
2026-05-08 16:18 21.22103 -155.41625 36409 ft 487 kts 13°
2026-05-08 16:18 21.25246 -155.40299 36827 ft 487 kts 13°
2026-05-08 16:18 21.28412 -155.38963 37194 ft 488 kts 13°
2026-05-08 16:19 21.31616 -155.37611 37454 ft 490 kts 13°
2026-05-08 16:19 21.34765 -155.36281 37866 ft 488 kts 13°
2026-05-08 16:19 21.37926 -155.34944 38229 ft 487 kts 13°
2026-05-08 16:19 21.41103 -155.33603 38436 ft 489 kts 12°
2026-05-08 16:20 21.44265 -155.32266 38598 ft 491 kts 12°
2026-05-08 16:20 21.47479 -155.30908 38729 ft 494 kts 13°
2026-05-08 16:20 21.50689 -155.29550 38934 ft 495 kts 13°
2026-05-08 16:20 21.53887 -155.28195 39077 ft 495 kts 13°
2026-05-08 16:21 21.60250 -155.25496 39081 ft 489 kts 12°
2026-05-08 16:21 21.66615 -155.22795 39089 ft 489 kts 12°
2026-05-08 16:22 21.72925 -155.20117 39088 ft 487 kts 13°
2026-05-08 16:22 21.79204 -155.17448 39090 ft 485 kts 12°
2026-05-08 16:23 21.85481 -155.14780 39083 ft 487 kts 12°
2026-05-08 16:23 21.91776 -155.12102 39081 ft 487 kts 12°
2026-05-08 16:24 21.98094 -155.09409 39085 ft 486 kts 12°
2026-05-08 16:24 22.04396 -155.06729 39088 ft 486 kts 12°
2026-05-08 16:25 22.10682 -155.04040 39087 ft 486 kts 13°
2026-05-08 16:25 22.16981 -155.01347 39091 ft 487 kts 13°
2026-05-08 16:26 22.23274 -154.98654 39091 ft 486 kts 13°
2026-05-08 16:26 22.29560 -154.95962 39095 ft 485 kts 13°
2026-05-08 16:27 22.35851 -154.93266 39090 ft 487 kts 13°
2026-05-08 16:27 22.42152 -154.90562 39091 ft 487 kts 13°
2026-05-08 16:28 22.48440 -154.87860 39093 ft 485 kts 13°
2026-05-08 16:28 22.54705 -154.85169 39093 ft 485 kts 13°
2026-05-08 16:29 22.60976 -154.82469 39096 ft 486 kts 13°
2026-05-08 16:29 22.67262 -154.79764 39093 ft 487 kts 13°
2026-05-08 16:30 22.73583 -154.77037 39100 ft 486 kts 13°
2026-05-08 16:30 22.79857 -154.74329 39095 ft 484 kts 13°
2026-05-08 16:31 22.86109 -154.71629 39096 ft 485 kts 13°
2026-05-08 16:31 22.92377 -154.68919 39096 ft 487 kts 13°
2026-05-08 16:32 22.98440 -154.65555 39095 ft 496 kts 28°
2026-05-08 16:32 23.03469 -154.60260 39090 ft 518 kts 47°
2026-05-08 16:33 23.07535 -154.53740 39103 ft 524 kts 51°
2026-05-08 16:33 23.11545 -154.47121 39105 ft 522 kts 51°
2026-05-08 16:34 23.15525 -154.40558 39110 ft 521 kts 51°
2026-05-08 16:34 23.19508 -154.33990 39099 ft 522 kts 51°
2026-05-08 16:35 23.23485 -154.27429 39094 ft 521 kts 52°
2026-05-08 16:35 23.27455 -154.20872 39097 ft 517 kts 51°
2026-05-08 16:36 23.31383 -154.14380 39104 ft 520 kts 52°
2026-05-08 16:36 23.35341 -154.07831 39106 ft 518 kts 52°
2026-05-08 16:37 23.39283 -154.01298 39107 ft 515 kts 52°
2026-05-08 16:37 23.43223 -153.94763 39108 ft 517 kts 52°
2026-05-08 16:38 23.47170 -153.88208 39115 ft 517 kts 52°
2026-05-08 16:38 23.51082 -153.81700 39114 ft 515 kts 52°
2026-05-08 16:39 23.55004 -153.75171 39113 ft 516 kts 52°
2026-05-08 16:39 23.58935 -153.68616 39114 ft 514 kts 52°
2026-05-08 16:40 23.62833 -153.62106 39128 ft 513 kts 52°
2026-05-08 16:40 23.66718 -153.55612 39126 ft 513 kts 52°
2026-05-08 16:41 23.70614 -153.49092 39128 ft 514 kts 52°
2026-05-08 16:42 23.76428 -153.39342 39133 ft 511 kts 52°
2026-05-08 16:42 23.80316 -153.32831 39120 ft 513 kts 53°
2026-05-08 16:43 23.84207 -153.26332 39123 ft 511 kts 53°
2026-05-08 16:43 23.88065 -153.19878 39131 ft 510 kts 53°
2026-05-08 16:44 23.91951 -153.13370 39124 ft 510 kts 52°
2026-05-08 16:44 23.95811 -153.06895 39130 ft 510 kts 53°
2026-05-08 16:45 23.99675 -153.00406 39124 ft 511 kts 53°
2026-05-08 16:45 24.03528 -152.93926 39134 ft 509 kts 53°
2026-05-08 16:46 24.07365 -152.87462 39133 ft 507 kts 53°
2026-05-08 16:46 24.11207 -152.80984 39127 ft 507 kts 53°
2026-05-08 16:47 24.15047 -152.74501 39138 ft 510 kts 53°
2026-05-08 16:47 24.18880 -152.68019 39137 ft 507 kts 53°
2026-05-08 16:48 24.22724 -152.61513 39127 ft 507 kts 53°
2026-05-08 16:48 24.26549 -152.55029 39145 ft 507 kts 53°
2026-05-08 16:49 24.30355 -152.48567 39139 ft 506 kts 53°
2026-05-08 16:49 24.34162 -152.42097 39143 ft 507 kts 53°
2026-05-08 16:50 24.37956 -152.35640 39143 ft 505 kts 53°
2026-05-08 16:50 24.41767 -152.29146 39133 ft 506 kts 54°
2026-05-08 16:51 24.45561 -152.22672 39135 ft 504 kts 54°
2026-05-08 16:51 24.49340 -152.16214 39128 ft 504 kts 54°
2026-05-08 16:52 24.53120 -152.09747 39135 ft 502 kts 54°
2026-05-08 16:52 24.56887 -152.03293 39136 ft 504 kts 54°
2026-05-08 16:53 24.62518 -151.93630 39139 ft 501 kts 54°
2026-05-08 16:53 24.66276 -151.87170 39140 ft 502 kts 54°
2026-05-08 16:54 24.70015 -151.80736 39136 ft 502 kts 54°
2026-05-08 16:54 24.73747 -151.74301 39135 ft 501 kts 54°
2026-05-08 16:55 24.77490 -151.67844 39140 ft 499 kts 55°
2026-05-08 16:55 24.81203 -151.61424 39133 ft 497 kts 55°
2026-05-08 16:56 24.84899 -151.55029 39138 ft 497 kts 55°
2026-05-08 16:56 24.88597 -151.48622 39145 ft 495 kts 55°
2026-05-08 16:57 24.92284 -151.42224 39134 ft 496 kts 55°
2026-05-08 16:57 24.95970 -151.35820 39134 ft 494 kts 55°
2026-05-08 16:58 24.99659 -151.29402 39131 ft 496 kts 56°
2026-05-08 16:58 25.03318 -151.23027 39138 ft 494 kts 56°
2026-05-08 16:59 25.06968 -151.16660 39133 ft 494 kts 56°
2026-05-08 16:59 25.10651 -151.10228 39137 ft 494 kts 56°
2026-05-08 17:00 25.14310 -151.03827 39137 ft 493 kts 56°
2026-05-08 17:00 25.17952 -150.97447 39139 ft 492 kts 56°
2026-05-08 17:01 25.21571 -150.91101 39138 ft 493 kts 56°
2026-05-08 17:01 25.25210 -150.84709 39138 ft 491 kts 56°
2026-05-08 17:02 25.28847 -150.78313 39138 ft 492 kts 56°
2026-05-08 17:02 25.32477 -150.71921 39144 ft 492 kts 56°
2026-05-08 17:03 25.36092 -150.65546 39144 ft 491 kts 56°
2026-05-08 17:03 25.39718 -150.59143 39144 ft 492 kts 56°
2026-05-08 17:04 25.43347 -150.52727 39146 ft 492 kts 57°
2026-05-08 17:04 25.46954 -150.46339 39147 ft 492 kts 57°
2026-05-08 17:05 25.50577 -150.39916 39147 ft 491 kts 57°
2026-05-08 17:05 25.54169 -150.33539 39142 ft 490 kts 57°
2026-05-08 17:06 25.57752 -150.27167 39140 ft 491 kts 57°
2026-05-08 17:06 25.61362 -150.20741 39142 ft 490 kts 57°
2026-05-08 17:07 25.64954 -150.14337 39145 ft 490 kts 57°
2026-05-08 17:07 25.68536 -150.07942 39148 ft 489 kts 57°
2026-05-08 17:08 25.72128 -150.01520 39149 ft 490 kts 57°
2026-05-08 17:08 25.75688 -149.95148 39150 ft 489 kts 57°
2026-05-08 17:09 25.79260 -149.88744 39146 ft 488 kts 57°
2026-05-08 17:09 25.82819 -149.82353 39152 ft 487 kts 58°
2026-05-08 17:10 25.86376 -149.75960 39156 ft 488 kts 57°
2026-05-08 17:10 25.89939 -149.69545 39159 ft 488 kts 57°
2026-05-08 17:11 25.93501 -149.63124 39157 ft 487 kts 57°
2026-05-08 17:11 25.97040 -149.56735 39156 ft 487 kts 58°
2026-05-08 17:12 26.00578 -149.50339 39159 ft 486 kts 58°
2026-05-08 17:12 26.04092 -149.43979 39155 ft 485 kts 58°
2026-05-08 17:13 26.07607 -149.37607 39158 ft 485 kts 58°
2026-05-08 17:13 26.11143 -149.31187 39153 ft 487 kts 58°
2026-05-08 17:14 26.14674 -149.24768 39157 ft 486 kts 58°
2026-05-08 17:14 26.18193 -149.18361 39156 ft 486 kts 58°
2026-05-08 17:15 26.21686 -149.11995 39154 ft 486 kts 58°
2026-05-08 17:15 26.25203 -149.05574 39156 ft 486 kts 58°
2026-05-08 17:16 26.28719 -148.99146 39158 ft 485 kts 58°
2026-05-08 17:16 26.32217 -148.92741 39156 ft 485 kts 58°
2026-05-08 17:17 26.35708 -148.86342 39165 ft 485 kts 58°
2026-05-08 17:17 26.39212 -148.79909 39167 ft 487 kts 58°
2026-05-08 17:18 26.42705 -148.73486 39168 ft 486 kts 58°
2026-05-08 17:18 26.46205 -148.67041 39166 ft 486 kts 58°
2026-05-08 17:19 26.49691 -148.60614 39171 ft 486 kts 58°
2026-05-08 17:19 26.53188 -148.54156 39169 ft 486 kts 58°
2026-05-08 17:20 26.54935 -148.50926 39403 ft 483 kts 58°
2026-05-08 17:20 26.56659 -148.47737 39710 ft 480 kts 58°
2026-05-08 17:20 26.58372 -148.44566 40023 ft 477 kts 58°
2026-05-08 17:20 26.60080 -148.41402 40340 ft 474 kts 58°
2026-05-08 17:21 26.61782 -148.38248 40656 ft 470 kts 58°
2026-05-08 17:21 26.63440 -148.35172 40968 ft 467 kts 58°
2026-05-08 17:21 26.65111 -148.32069 41180 ft 465 kts 58°
2026-05-08 17:21 26.66773 -148.28981 41169 ft 467 kts 58°
2026-05-08 17:22 26.70152 -148.22699 41173 ft 471 kts 58°
2026-05-08 17:22 26.73518 -148.16431 41172 ft 476 kts 58°
2026-05-08 17:23 26.76936 -148.10057 41175 ft 480 kts 58°
2026-05-08 17:23 26.80387 -148.03612 41175 ft 485 kts 58°
2026-05-08 17:24 26.83833 -147.97168 41174 ft 486 kts 58°
2026-05-08 17:24 26.87299 -147.90674 41175 ft 485 kts 58°
2026-05-08 17:25 26.90755 -147.84190 41175 ft 487 kts 58°
2026-05-08 17:25 26.94199 -147.77722 41175 ft 486 kts 58°
2026-05-08 17:26 26.97665 -147.71201 41177 ft 486 kts 58°
2026-05-08 17:26 27.01117 -147.64697 41176 ft 487 kts 58°
2026-05-08 17:27 27.04559 -147.58202 41176 ft 485 kts 58°
2026-05-08 17:27 27.07995 -147.51710 41176 ft 484 kts 58°
2026-05-08 17:28 27.11430 -147.45209 41175 ft 485 kts 58°
2026-05-08 17:28 27.14841 -147.38744 41176 ft 485 kts 58°
2026-05-08 17:29 27.18271 -147.32234 41171 ft 485 kts 59°
2026-05-08 17:29 27.21691 -147.25732 41172 ft 485 kts 59°
2026-05-08 17:30 27.25111 -147.19222 41174 ft 486 kts 59°
2026-05-08 17:30 27.28543 -147.12677 41176 ft 485 kts 59°
2026-05-08 17:31 27.31965 -147.06145 41178 ft 485 kts 59°
2026-05-08 17:31 27.35363 -146.99648 41178 ft 484 kts 59°
2026-05-08 17:32 27.38772 -146.93118 41182 ft 484 kts 59°
2026-05-08 17:32 27.42174 -146.86594 41182 ft 485 kts 59°
2026-05-08 17:33 27.45561 -146.80087 41187 ft 485 kts 59°
2026-05-08 17:33 27.48980 -146.73511 41190 ft 486 kts 59°
2026-05-08 17:34 27.52371 -146.66977 41190 ft 485 kts 59°
2026-05-08 17:34 27.55770 -146.60417 41190 ft 486 kts 59°
2026-05-08 17:35 27.59166 -146.53854 41191 ft 486 kts 59°
2026-05-08 17:35 27.62555 -146.47296 41191 ft 487 kts 59°
2026-05-08 17:36 27.65950 -146.40714 41193 ft 486 kts 59°
2026-05-08 17:36 27.69345 -146.34123 41193 ft 487 kts 60°
2026-05-08 17:37 27.72726 -146.27550 41190 ft 486 kts 60°
2026-05-08 17:37 27.76114 -146.20950 41188 ft 485 kts 60°
2026-05-08 17:38 27.79482 -146.14380 41192 ft 487 kts 60°
2026-05-08 17:38 27.82862 -146.07777 41192 ft 487 kts 60°
2026-05-08 17:39 27.86232 -146.01186 41194 ft 486 kts 60°
2026-05-08 17:39 27.89617 -145.94551 41195 ft 487 kts 60°
2026-05-08 17:40 27.92978 -145.87955 41199 ft 487 kts 60°
2026-05-08 17:40 27.96365 -145.81296 41196 ft 487 kts 60°
2026-05-08 17:41 27.99725 -145.74681 41202 ft 487 kts 60°
2026-05-08 17:41 28.03087 -145.68053 41199 ft 486 kts 60°
2026-05-08 17:42 28.06447 -145.61417 41197 ft 486 kts 60°
2026-05-08 17:42 28.09795 -145.54793 41197 ft 486 kts 60°
2026-05-08 17:43 28.13140 -145.48167 41198 ft 487 kts 60°
2026-05-08 17:43 28.16489 -145.41521 41196 ft 487 kts 60°
2026-05-08 17:44 28.19830 -145.34882 41196 ft 487 kts 60°
2026-05-08 17:44 28.23174 -145.28223 41190 ft 487 kts 60°
2026-05-08 17:45 28.26512 -145.21568 41191 ft 488 kts 60°
2026-05-08 17:45 28.29863 -145.14877 41193 ft 488 kts 60°
2026-05-08 17:46 28.33200 -145.08202 41191 ft 487 kts 60°
2026-05-08 17:46 28.36540 -145.01509 41192 ft 488 kts 61°
2026-05-08 17:47 28.39869 -144.94830 41194 ft 487 kts 60°
2026-05-08 17:47 28.42631 -144.89279 41192 ft 487 kts 60°
2026-05-08 17:48 28.46516 -144.81461 41199 ft 487 kts 60°
2026-05-08 17:48 28.49828 -144.74782 41210 ft 488 kts 60°
2026-05-08 17:49 28.53149 -144.68076 41205 ft 489 kts 60°
2026-05-08 17:49 28.56481 -144.61334 41208 ft 488 kts 60°
2026-05-08 17:50 28.59802 -144.54607 41210 ft 489 kts 61°
2026-05-08 17:50 28.63112 -144.47888 41211 ft 489 kts 61°
2026-05-08 17:51 28.66420 -144.41162 41212 ft 488 kts 61°
2026-05-08 17:51 28.69743 -144.34396 41211 ft 489 kts 61°
2026-05-08 17:52 28.73035 -144.27683 41209 ft 488 kts 61°
2026-05-08 17:53 28.77978 -144.17580 41213 ft 488 kts 61°
2026-05-08 17:53 28.81269 -144.10841 41212 ft 489 kts 61°
2026-05-08 17:54 28.84583 -144.04042 41213 ft 489 kts 61°
2026-05-08 17:54 28.87878 -143.97273 41215 ft 489 kts 61°
2026-05-08 17:55 28.91156 -143.90526 41218 ft 490 kts 61°
2026-05-08 17:55 28.94447 -143.83740 41219 ft 489 kts 61°
2026-05-08 17:56 28.97739 -143.76942 41220 ft 489 kts 61°
2026-05-08 17:56 29.01009 -143.70178 41225 ft 487 kts 61°
2026-05-08 17:57 29.04279 -143.63403 41227 ft 488 kts 61°
2026-05-08 17:57 29.07544 -143.56627 41226 ft 489 kts 61°
2026-05-08 17:58 29.10812 -143.49834 41224 ft 489 kts 62°
2026-05-08 17:58 29.14075 -143.43039 41227 ft 490 kts 62°
2026-05-08 17:59 29.17361 -143.36185 41227 ft 490 kts 62°
2026-05-08 17:59 29.20615 -143.29385 41220 ft 490 kts 62°
2026-05-08 18:00 29.23862 -143.22589 41227 ft 489 kts 62°
2026-05-08 18:00 29.28740 -143.12358 41226 ft 489 kts 62°
2026-05-08 18:01 29.31988 -143.05530 41224 ft 489 kts 62°
2026-05-08 18:01 29.35224 -142.98717 41227 ft 488 kts 62°
2026-05-08 18:02 29.38476 -142.91858 41226 ft 490 kts 62°
2026-05-08 18:02 29.41717 -142.85011 41228 ft 490 kts 62°
2026-05-08 18:03 29.44971 -142.78125 41233 ft 490 kts 62°
2026-05-08 18:03 29.48198 -142.71283 41239 ft 491 kts 62°
2026-05-08 18:04 29.51433 -142.64414 41240 ft 492 kts 62°
2026-05-08 18:04 29.54680 -142.57504 41239 ft 491 kts 62°
2026-05-08 18:05 29.57921 -142.50600 41242 ft 492 kts 62°
2026-05-08 18:05 29.61149 -142.43709 41242 ft 492 kts 62°
2026-05-08 18:06 29.64376 -142.36807 41245 ft 491 kts 62°
2026-05-08 18:06 29.67593 -142.29916 41241 ft 492 kts 63°
2026-05-08 18:07 29.70828 -142.22972 41228 ft 491 kts 63°
2026-05-08 18:07 29.74029 -142.16092 41218 ft 491 kts 63°
2026-05-08 18:08 29.77247 -142.09160 41220 ft 491 kts 63°
2026-05-08 18:08 29.80441 -142.02271 41218 ft 491 kts 63°
2026-05-08 18:09 29.83656 -141.95323 41221 ft 492 kts 63°
2026-05-08 18:09 29.86849 -141.88409 41219 ft 492 kts 63°
2026-05-08 18:10 29.90050 -141.81467 41227 ft 490 kts 63°
2026-05-08 18:10 29.93227 -141.74564 41232 ft 489 kts 63°
2026-05-08 18:11 29.96410 -141.67636 41233 ft 491 kts 63°
2026-05-08 18:11 29.99607 -141.60664 41249 ft 490 kts 63°
2026-05-08 18:12 30.02774 -141.53746 41249 ft 491 kts 63°
2026-05-08 18:12 30.05947 -141.46803 41249 ft 492 kts 63°
2026-05-08 18:13 30.09130 -141.39825 41253 ft 491 kts 63°
2026-05-08 18:13 30.12297 -141.32872 41242 ft 492 kts 63°
2026-05-08 18:14 30.15474 -141.25880 41244 ft 491 kts 63°
2026-05-08 18:14 30.18632 -141.18919 41246 ft 491 kts 63°
2026-05-08 18:15 30.21788 -141.11952 41248 ft 489 kts 63°
2026-05-08 18:15 30.24924 -141.05014 41250 ft 490 kts 63°
2026-05-08 18:16 30.28077 -140.98027 41252 ft 491 kts 63°
2026-05-08 18:16 30.31235 -140.91016 41247 ft 493 kts 63°
2026-05-08 18:17 30.34388 -140.84003 41249 ft 492 kts 63°
2026-05-08 18:17 30.37526 -140.77011 41249 ft 492 kts 63°
2026-05-08 18:18 30.40682 -140.69966 41247 ft 493 kts 63°
2026-05-08 18:18 30.43815 -140.62949 41243 ft 491 kts 64°
2026-05-08 18:19 30.46944 -140.55928 41247 ft 491 kts 63°
2026-05-08 18:19 30.50057 -140.48927 41246 ft 491 kts 64°
2026-05-08 18:20 30.53188 -140.41875 41250 ft 492 kts 63°
2026-05-08 18:20 30.56315 -140.34819 41253 ft 493 kts 64°
2026-05-08 18:21 30.59429 -140.27780 41246 ft 493 kts 64°
2026-05-08 18:21 30.62539 -140.20735 41250 ft 493 kts 64°
2026-05-08 18:22 30.65669 -140.13631 41248 ft 493 kts 64°
2026-05-08 18:22 30.68768 -140.06587 41242 ft 493 kts 64°
2026-05-08 18:23 30.71878 -139.99503 41240 ft 494 kts 64°
2026-05-08 18:23 30.74980 -139.92424 41242 ft 495 kts 64°
2026-05-08 18:24 30.78089 -139.85316 41243 ft 494 kts 64°
2026-05-08 18:24 30.81191 -139.78210 41249 ft 492 kts 64°
2026-05-08 18:25 30.84283 -139.71115 41247 ft 494 kts 64°
2026-05-08 18:25 30.87380 -139.63994 41248 ft 495 kts 64°
2026-05-08 18:26 30.90479 -139.56854 41250 ft 494 kts 64°
2026-05-08 18:26 30.93556 -139.49753 41250 ft 495 kts 64°
2026-05-08 18:27 30.96138 -139.43782 41251 ft 495 kts 64°
2026-05-08 18:27 30.99733 -139.35452 41255 ft 496 kts 64°
2026-05-08 18:28 31.02824 -139.28278 41249 ft 495 kts 64°
2026-05-08 18:28 31.05892 -139.21141 41250 ft 495 kts 64°
2026-05-08 18:29 31.08977 -139.13951 41251 ft 495 kts 64°
2026-05-08 18:29 31.12050 -139.06776 41245 ft 496 kts 64°
2026-05-08 18:30 31.15107 -138.99623 41248 ft 496 kts 64°
2026-05-08 18:30 31.18179 -138.92423 41249 ft 496 kts 64°
2026-05-08 18:31 31.21244 -138.85223 41254 ft 496 kts 64°
2026-05-08 18:31 31.24299 -138.78035 41253 ft 496 kts 64°
2026-05-08 18:32 31.27369 -138.70798 41260 ft 496 kts 64°
2026-05-08 18:32 31.30405 -138.63623 41262 ft 496 kts 64°
2026-05-08 18:33 31.33470 -138.56367 41263 ft 497 kts 64°
2026-05-08 18:33 31.36510 -138.49158 41263 ft 497 kts 64°
2026-05-08 18:34 31.39548 -138.41937 41268 ft 498 kts 64°
2026-05-08 18:34 31.42603 -138.34662 41271 ft 497 kts 65°
2026-05-08 18:35 31.45634 -138.27431 41266 ft 497 kts 65°
2026-05-08 18:35 31.48669 -138.20175 41264 ft 499 kts 65°
2026-05-08 18:36 31.51707 -138.12895 41264 ft 497 kts 65°
2026-05-08 18:36 31.54729 -138.05641 41264 ft 497 kts 65°
2026-05-08 18:37 31.57768 -137.98332 41268 ft 498 kts 65°
2026-05-08 18:37 31.60777 -137.91081 41266 ft 499 kts 65°
2026-05-08 18:38 31.63800 -137.83780 41268 ft 498 kts 65°
2026-05-08 18:38 31.66825 -137.76460 41268 ft 499 kts 65°
2026-05-08 18:39 31.69832 -137.69170 41270 ft 499 kts 65°
2026-05-08 18:39 31.72842 -137.61856 41271 ft 498 kts 65°
2026-05-08 18:40 31.75843 -137.54549 41271 ft 500 kts 65°
2026-05-08 18:40 31.78844 -137.47227 41272 ft 500 kts 65°
2026-05-08 18:41 31.81855 -137.39867 41277 ft 499 kts 65°
2026-05-08 18:41 31.84836 -137.32565 41268 ft 500 kts 65°
2026-05-08 18:42 31.87829 -137.25218 41272 ft 499 kts 65°
2026-05-08 18:42 31.90830 -137.17836 41275 ft 500 kts 65°
2026-05-08 18:43 31.93802 -137.10510 41278 ft 500 kts 65°
2026-05-08 18:43 31.96804 -137.03095 41275 ft 501 kts 65°
2026-05-08 18:44 31.99777 -136.95737 41279 ft 500 kts 65°
2026-05-08 18:44 32.02758 -136.88344 41275 ft 500 kts 65°
2026-05-08 18:45 32.05721 -136.80980 41267 ft 499 kts 65°
2026-05-08 18:45 32.08679 -136.73612 41265 ft 500 kts 65°
2026-05-08 18:46 32.11654 -136.66187 41259 ft 501 kts 65°
2026-05-08 18:46 32.14615 -136.58781 41262 ft 502 kts 65°
2026-05-08 18:47 32.17581 -136.51347 41262 ft 501 kts 65°
2026-05-08 18:47 32.20526 -136.43948 41265 ft 502 kts 65°
2026-05-08 18:48 32.23489 -136.36491 41266 ft 502 kts 65°
2026-05-08 18:48 32.26441 -136.29045 41261 ft 502 kts 65°
2026-05-08 18:49 32.29388 -136.21596 41267 ft 502 kts 65°
2026-05-08 18:49 32.32326 -136.14153 41278 ft 503 kts 65°
2026-05-08 18:50 32.35263 -136.06696 41281 ft 503 kts 65°
2026-05-08 18:50 32.38205 -135.99211 41279 ft 502 kts 65°
2026-05-08 18:51 32.41124 -135.91768 41273 ft 503 kts 65°
2026-05-08 18:51 32.44070 -135.84242 41268 ft 502 kts 65°
2026-05-08 18:52 32.46981 -135.76788 41277 ft 503 kts 65°
2026-05-08 18:52 32.49906 -135.69284 41279 ft 503 kts 65°
2026-05-08 18:53 32.52831 -135.61760 41281 ft 502 kts 65°
2026-05-08 18:53 32.55724 -135.54306 41285 ft 503 kts 65°
2026-05-08 18:54 32.58650 -135.46747 41285 ft 503 kts 65°
2026-05-08 18:54 32.61547 -135.39249 41286 ft 503 kts 65°
2026-05-08 18:55 32.65889 -135.27977 41273 ft 502 kts 65°
2026-05-08 18:56 32.68773 -135.20470 41275 ft 501 kts 65°
2026-05-08 18:56 32.71645 -135.12976 41276 ft 501 kts 65°
2026-05-08 18:57 32.74537 -135.05417 41273 ft 502 kts 65°
2026-05-08 18:57 32.77401 -134.97913 41276 ft 503 kts 65°
2026-05-08 18:58 32.80282 -134.90347 41278 ft 503 kts 65°
2026-05-08 18:58 32.83152 -134.82794 41279 ft 504 kts 65°
2026-05-08 18:59 32.86021 -134.75227 41281 ft 503 kts 65°
2026-05-08 18:59 32.88886 -134.67653 41282 ft 503 kts 65°
2026-05-08 19:00 32.91728 -134.60123 41282 ft 503 kts 65°
2026-05-08 19:00 32.94591 -134.52522 41282 ft 502 kts 65°
2026-05-08 19:01 32.97434 -134.44954 41283 ft 503 kts 65°
2026-05-08 19:01 33.00278 -134.37367 41282 ft 503 kts 65°
2026-05-08 19:02 33.03101 -134.29822 41277 ft 502 kts 66°
2026-05-08 19:02 33.05928 -134.22246 41277 ft 502 kts 65°
2026-05-08 19:03 33.08776 -134.14597 41277 ft 503 kts 65°
2026-05-08 19:03 33.11600 -134.06996 41275 ft 502 kts 65°
2026-05-08 19:04 33.14413 -133.99405 41275 ft 503 kts 65°
2026-05-08 19:04 33.17220 -133.91815 41278 ft 503 kts 65°
2026-05-08 19:05 33.20048 -133.84151 41279 ft 503 kts 65°
2026-05-08 19:05 33.22841 -133.76564 41277 ft 502 kts 65°
2026-05-08 19:06 33.25650 -133.68916 41280 ft 502 kts 65°
2026-05-08 19:06 33.28434 -133.61320 41280 ft 501 kts 65°
2026-05-08 19:07 33.31221 -133.53700 41283 ft 502 kts 65°
2026-05-08 19:07 33.34001 -133.46083 41289 ft 502 kts 65°
2026-05-08 19:08 33.36777 -133.38460 41293 ft 501 kts 65°
2026-05-08 19:08 33.39547 -133.30835 41287 ft 501 kts 66°
2026-05-08 19:09 33.42303 -133.23228 41287 ft 502 kts 66°
2026-05-08 19:09 33.45068 -133.15581 41289 ft 501 kts 65°
2026-05-08 19:10 33.47820 -133.07953 41295 ft 501 kts 65°
2026-05-08 19:10 33.50571 -133.00310 41296 ft 500 kts 65°
2026-05-08 19:11 33.53304 -132.92699 41297 ft 501 kts 65°
2026-05-08 19:11 33.56051 -132.85030 41296 ft 501 kts 66°
2026-05-08 19:12 33.58786 -132.77376 41296 ft 501 kts 65°
2026-05-08 19:12 33.61511 -132.69733 41290 ft 500 kts 66°
2026-05-08 19:13 33.64222 -132.62112 41291 ft 500 kts 65°
2026-05-08 19:13 33.66950 -132.54423 41294 ft 499 kts 65°
2026-05-08 19:14 33.69657 -132.46777 41294 ft 501 kts 65°
2026-05-08 19:14 33.72363 -132.39116 41296 ft 500 kts 65°
2026-05-08 19:15 33.75066 -132.31444 41289 ft 499 kts 66°
2026-05-08 19:15 33.77758 -132.23787 41292 ft 500 kts 66°
2026-05-08 19:16 33.80447 -132.16115 41290 ft 501 kts 66°
2026-05-08 19:16 33.83143 -132.08411 41280 ft 500 kts 66°
2026-05-08 19:17 33.85832 -132.00703 41282 ft 499 kts 66°
2026-05-08 19:17 33.88509 -131.93013 41286 ft 499 kts 66°
2026-05-08 19:18 33.91169 -131.85356 41287 ft 499 kts 66°
2026-05-08 19:18 33.93839 -131.77646 41288 ft 499 kts 66°
2026-05-08 19:19 33.96491 -131.69977 41282 ft 499 kts 66°
2026-05-08 19:19 33.99132 -131.62315 41283 ft 499 kts 66°
2026-05-08 19:20 34.01782 -131.54611 41282 ft 499 kts 66°
2026-05-08 19:20 34.04440 -131.46864 41282 ft 500 kts 66°
2026-05-08 19:21 34.07085 -131.39136 41282 ft 499 kts 66°
2026-05-08 19:21 34.09705 -131.31461 41272 ft 499 kts 66°
2026-05-08 19:22 34.12336 -131.23735 41274 ft 498 kts 66°
2026-05-08 19:22 34.14955 -131.16026 41275 ft 500 kts 66°
2026-05-08 19:23 34.17577 -131.08292 41276 ft 498 kts 66°
2026-05-08 19:23 34.20190 -131.00562 41278 ft 498 kts 66°
2026-05-08 19:24 34.22786 -130.92865 41277 ft 498 kts 66°
2026-05-08 19:24 34.25396 -130.85107 41278 ft 498 kts 66°
2026-05-08 19:25 34.27991 -130.77373 41278 ft 497 kts 66°
2026-05-08 19:25 34.30586 -130.69623 41278 ft 498 kts 66°
2026-05-08 19:26 34.33158 -130.61917 41280 ft 497 kts 66°
2026-05-08 19:26 34.35739 -130.54169 41281 ft 497 kts 66°
2026-05-08 19:27 34.38301 -130.46458 41282 ft 496 kts 66°
2026-05-08 19:27 34.40865 -130.38721 41285 ft 497 kts 66°
2026-05-08 19:28 34.43415 -130.31006 41280 ft 497 kts 66°
2026-05-08 19:28 34.45969 -130.23262 41286 ft 497 kts 66°
2026-05-08 19:29 34.48526 -130.15486 41286 ft 496 kts 66°
2026-05-08 19:29 34.51067 -130.07741 41285 ft 496 kts 66°
2026-05-08 19:30 34.53597 -130.00012 41287 ft 496 kts 66°
2026-05-08 19:30 34.56124 -129.92268 41287 ft 496 kts 66°
2026-05-08 19:31 34.58645 -129.84528 41287 ft 495 kts 66°
2026-05-08 19:31 34.61166 -129.76767 41297 ft 495 kts 66°
2026-05-08 19:32 34.63678 -129.69008 41299 ft 495 kts 66°
2026-05-08 19:32 34.66185 -129.61252 41301 ft 496 kts 66°
2026-05-08 19:33 34.68684 -129.53497 41302 ft 494 kts 66°
2026-05-08 19:33 34.71172 -129.45758 41302 ft 495 kts 66°
2026-05-08 19:34 34.73653 -129.38017 41300 ft 493 kts 66°
2026-05-08 19:34 34.76144 -129.30228 41291 ft 493 kts 66°
2026-05-08 19:35 34.78611 -129.22496 41288 ft 492 kts 66°
2026-05-08 19:35 34.81064 -129.14786 41282 ft 492 kts 66°
2026-05-08 19:36 34.83534 -129.06999 41277 ft 493 kts 66°
2026-05-08 19:36 34.85974 -128.99291 41277 ft 492 kts 66°
2026-05-08 19:37 34.88433 -128.91501 41279 ft 492 kts 66°
2026-05-08 19:37 34.90875 -128.83748 41277 ft 493 kts 66°
2026-05-08 19:38 34.93308 -128.76001 41276 ft 492 kts 66°
2026-05-08 19:38 34.95740 -128.68234 41278 ft 493 kts 66°
2026-05-08 19:39 34.98172 -128.60449 41277 ft 492 kts 66°
2026-05-08 19:39 35.00583 -128.52708 41278 ft 491 kts 66°
2026-05-08 19:40 35.02991 -128.44961 41278 ft 490 kts 66°
2026-05-08 19:40 35.05402 -128.37181 41279 ft 491 kts 66°
2026-05-08 19:41 35.07807 -128.29404 41272 ft 491 kts 66°
2026-05-08 19:41 35.10204 -128.21628 41272 ft 492 kts 66°
2026-05-08 19:42 35.12597 -128.13843 41277 ft 490 kts 66°
2026-05-08 19:42 35.14970 -128.06104 41278 ft 490 kts 66°
2026-05-08 19:43 35.17352 -127.98316 41278 ft 490 kts 66°
2026-05-08 19:43 35.19730 -127.90519 41278 ft 490 kts 66°
2026-05-08 19:44 35.22104 -127.82718 41279 ft 490 kts 66°
2026-05-08 19:44 35.24462 -127.74942 41280 ft 490 kts 66°
2026-05-08 19:45 35.26817 -127.67159 41279 ft 489 kts 66°
2026-05-08 19:45 35.29177 -127.59338 41280 ft 490 kts 66°
2026-05-08 19:46 35.31519 -127.51556 41279 ft 489 kts 66°
2026-05-08 19:46 35.35013 -127.39906 41268 ft 489 kts 66°
2026-05-08 19:47 35.37357 -127.32064 41260 ft 489 kts 66°
2026-05-08 19:47 35.39673 -127.24293 41258 ft 488 kts 66°
2026-05-08 19:48 35.41998 -127.16473 41258 ft 490 kts 66°
2026-05-08 19:48 35.44316 -127.08654 41257 ft 489 kts 66°
2026-05-08 19:49 35.46609 -127.00898 41255 ft 488 kts 67°
2026-05-08 19:49 35.48922 -126.93053 41256 ft 489 kts 67°
2026-05-08 19:50 35.51227 -126.85213 41253 ft 488 kts 66°
2026-05-08 19:50 35.53502 -126.77451 41251 ft 488 kts 66°
2026-05-08 19:51 35.55783 -126.69649 41251 ft 488 kts 66°
2026-05-08 19:51 35.58073 -126.61797 41250 ft 488 kts 66°
2026-05-08 19:52 35.60350 -126.53965 41248 ft 488 kts 66°
2026-05-08 19:52 35.62614 -126.46157 41245 ft 488 kts 66°
2026-05-08 19:53 35.64876 -126.38336 41245 ft 488 kts 66°
2026-05-08 19:53 35.67134 -126.30504 41237 ft 488 kts 67°
2026-05-08 19:54 35.69391 -126.22656 41243 ft 489 kts 67°
2026-05-08 19:54 35.71650 -126.14774 41252 ft 488 kts 67°
2026-05-08 19:55 35.73920 -126.06986 41251 ft 485 kts 64°
2026-05-08 19:55 35.76564 -125.99381 41253 ft 485 kts 63°
2026-05-08 19:56 35.79201 -125.91795 41252 ft 485 kts 63°
2026-05-08 19:56 35.81842 -125.84135 41248 ft 484 kts 63°
2026-05-08 19:57 35.84450 -125.76520 41247 ft 485 kts 63°
2026-05-08 19:57 35.87059 -125.68876 41243 ft 485 kts 63°
2026-05-08 19:58 35.89655 -125.61241 41227 ft 484 kts 63°
2026-05-08 19:58 35.92237 -125.53621 41239 ft 484 kts 63°
2026-05-08 19:59 35.94826 -125.45964 41234 ft 485 kts 63°
2026-05-08 19:59 35.97398 -125.38338 41232 ft 489 kts 63°
2026-05-08 20:00 36.00024 -125.30529 41226 ft 496 kts 64°
2026-05-08 20:00 36.02660 -125.22672 41221 ft 503 kts 64°
2026-05-08 20:01 36.05344 -125.14647 41218 ft 509 kts 64°
2026-05-08 20:01 36.08052 -125.06525 41209 ft 513 kts 64°
2026-05-08 20:02 36.10754 -124.98404 41216 ft 515 kts 64°
2026-05-08 20:02 36.13477 -124.90192 41172 ft 517 kts 64°
2026-05-08 20:03 36.14826 -124.86118 40484 ft 516 kts 64°
2026-05-08 20:03 36.16157 -124.82082 39811 ft 499 kts 64°
2026-05-08 20:03 36.17481 -124.78187 39332 ft 482 kts 60°
2026-05-08 20:03 36.19128 -124.74603 38729 ft 470 kts 51°
2026-05-08 20:04 36.21041 -124.71445 38140 ft 462 kts 47°
2026-05-08 20:04 36.23018 -124.68340 37543 ft 456 kts 47°
2026-05-08 20:04 36.24982 -124.65259 36963 ft 451 kts 47°
2026-05-08 20:04 36.26913 -124.62225 36394 ft 447 kts 47°
2026-05-08 20:05 36.28810 -124.59242 35834 ft 442 kts 47°
2026-05-08 20:05 36.30712 -124.56245 35268 ft 438 kts 47°
2026-05-08 20:05 36.32579 -124.53302 34709 ft 436 kts 47°
2026-05-08 20:05 36.34481 -124.50308 34148 ft 459 kts 47°
2026-05-08 20:06 36.36512 -124.47107 33553 ft 474 kts 47°
2026-05-08 20:06 36.38523 -124.43924 33021 ft 472 kts 47°
2026-05-08 20:06 36.40419 -124.40916 32532 ft 467 kts 47°
2026-05-08 20:06 36.42413 -124.37750 32019 ft 461 kts 47°
2026-05-08 20:07 36.44353 -124.34669 31515 ft 456 kts 48°
2026-05-08 20:07 36.46318 -124.31547 30990 ft 452 kts 48°
2026-05-08 20:07 36.48233 -124.28502 30475 ft 449 kts 48°
2026-05-08 20:07 36.50152 -124.25448 29956 ft 446 kts 48°
2026-05-08 20:08 36.52057 -124.22414 29438 ft 443 kts 48°
2026-05-08 20:08 36.53943 -124.19407 28936 ft 440 kts 48°
2026-05-08 20:08 36.55798 -124.16446 28440 ft 437 kts 49°
2026-05-08 20:08 36.57677 -124.13445 27934 ft 435 kts 49°
2026-05-08 20:09 36.59512 -124.10513 27439 ft 432 kts 49°
2026-05-08 20:09 36.61366 -124.07547 26937 ft 429 kts 49°
2026-05-08 20:09 36.63165 -124.04665 26445 ft 427 kts 49°
2026-05-08 20:09 36.64989 -124.01742 25944 ft 424 kts 49°
2026-05-08 20:10 36.66793 -123.98850 25448 ft 421 kts 49°
2026-05-08 20:10 36.68573 -123.95992 24955 ft 418 kts 49°
2026-05-08 20:10 36.70332 -123.93166 24463 ft 415 kts 50°
2026-05-08 20:10 36.72104 -123.90317 23980 ft 412 kts 50°
2026-05-08 20:11 36.73853 -123.87502 23506 ft 409 kts 50°
2026-05-08 20:11 36.75590 -123.84703 23030 ft 406 kts 50°
2026-05-08 20:11 36.77307 -123.81934 22612 ft 403 kts 50°
2026-05-08 20:11 36.79011 -123.79186 22250 ft 401 kts 50°
2026-05-08 20:12 36.80710 -123.76443 21891 ft 401 kts 50°
2026-05-08 20:12 36.82402 -123.73709 21532 ft 399 kts 50°
2026-05-08 20:12 36.84104 -123.70956 21219 ft 395 kts 50°
2026-05-08 20:12 36.85764 -123.68268 21173 ft 395 kts 50°
2026-05-08 20:13 36.87440 -123.65554 21169 ft 397 kts 50°
2026-05-08 20:13 36.89143 -123.62793 21165 ft 397 kts 50°
2026-05-08 20:13 36.90812 -123.60086 21168 ft 397 kts 50°
2026-05-08 20:13 36.92506 -123.57335 21168 ft 397 kts 50°
2026-05-08 20:14 36.94184 -123.54605 21107 ft 399 kts 50°
2026-05-08 20:14 36.95871 -123.51859 20662 ft 397 kts 50°
2026-05-08 20:14 36.97535 -123.49146 20188 ft 394 kts 50°
2026-05-08 20:14 36.99184 -123.46457 19712 ft 391 kts 50°
2026-05-08 20:15 37.00838 -123.43757 19237 ft 388 kts 50°
2026-05-08 20:15 37.02460 -123.41109 18764 ft 386 kts 50°
2026-05-08 20:15 37.04092 -123.38440 18285 ft 383 kts 50°
2026-05-08 20:15 37.05686 -123.35832 17817 ft 381 kts 50°
2026-05-08 20:16 37.07306 -123.33180 17342 ft 378 kts 51°
2026-05-08 20:16 37.08887 -123.30590 16876 ft 376 kts 51°
2026-05-08 20:16 37.10480 -123.27978 16304 ft 375 kts 51°
2026-05-08 20:16 37.12048 -123.25405 15709 ft 372 kts 51°
2026-05-08 20:17 37.13616 -123.22830 15116 ft 368 kts 51°
2026-05-08 20:17 37.15148 -123.20312 14530 ft 364 kts 51°
2026-05-08 20:17 37.16682 -123.17789 14083 ft 356 kts 51°
2026-05-08 20:17 37.18132 -123.15398 14002 ft 337 kts 51°
2026-05-08 20:18 37.19349 -123.12914 13991 ft 332 kts 65°
2026-05-08 20:18 37.20133 -123.10201 13910 ft 336 kts 71°
2026-05-08 20:18 37.20819 -123.07372 13481 ft 339 kts 72°
2026-05-08 20:18 37.21484 -123.04535 13003 ft 340 kts 72°
2026-05-08 20:19 37.22152 -123.01688 12522 ft 341 kts 72°
2026-05-08 20:19 37.22818 -122.98860 12046 ft 341 kts 72°
2026-05-08 20:19 37.23490 -122.96005 11561 ft 341 kts 72°
2026-05-08 20:19 37.24167 -122.93130 11037 ft 341 kts 72°
2026-05-08 20:20 37.24831 -122.90308 10576 ft 340 kts 72°
2026-05-08 20:20 37.25502 -122.87456 10107 ft 339 kts 72°
2026-05-08 20:20 37.26154 -122.84674 9960 ft 325 kts 72°
2026-05-08 20:20 37.26776 -122.82014 9977 ft 310 kts 72°
2026-05-08 20:21 37.27377 -122.79448 9970 ft 300 kts 72°
2026-05-08 20:21 37.27970 -122.76913 9980 ft 300 kts 72°
2026-05-08 20:21 37.28554 -122.74413 9961 ft 300 kts 72°
2026-05-08 20:21 37.29148 -122.71869 9975 ft 300 kts 72°
2026-05-08 20:22 37.29731 -122.69366 9931 ft 299 kts 72°
2026-05-08 20:22 37.30322 -122.66827 9988 ft 300 kts 72°
2026-05-08 20:22 37.30898 -122.64351 9951 ft 299 kts 72°
2026-05-08 20:22 37.31486 -122.61816 9717 ft 300 kts 72°
2026-05-08 20:23 37.32070 -122.59302 9463 ft 297 kts 72°
2026-05-08 20:23 37.32644 -122.56825 9234 ft 295 kts 72°
2026-05-08 20:23 37.33208 -122.54385 9035 ft 293 kts 72°
2026-05-08 20:23 37.33774 -122.51941 8836 ft 289 kts 72°
2026-05-08 20:24 37.34334 -122.49516 8591 ft 285 kts 72°
2026-05-08 20:24 37.34883 -122.47138 8344 ft 281 kts 72°
2026-05-08 20:24 37.35418 -122.44814 8110 ft 278 kts 72°
2026-05-08 20:24 37.35955 -122.42484 7969 ft 270 kts 72°
2026-05-08 20:25 37.36466 -122.40263 7979 ft 264 kts 72°
2026-05-08 20:25 37.36977 -122.38041 7962 ft 262 kts 72°
2026-05-08 20:25 37.37484 -122.35836 7956 ft 263 kts 72°
2026-05-08 20:25 37.37985 -122.33649 7959 ft 263 kts 73°
2026-05-08 20:26 37.38495 -122.31426 7963 ft 263 kts 73°
2026-05-08 20:26 37.38997 -122.29234 7962 ft 263 kts 73°
2026-05-08 20:26 37.39484 -122.26994 7755 ft 268 kts 79°
2026-05-08 20:26 37.39372 -122.24663 7258 ft 276 kts 106°
2026-05-08 20:27 37.38802 -122.22337 6747 ft 282 kts 103°
2026-05-08 20:27 37.38400 -122.19930 6215 ft 279 kts 98°
2026-05-08 20:27 37.38465 -122.17539 5862 ft 276 kts 73°
2026-05-08 20:27 37.39350 -122.15408 5307 ft 273 kts 46°
2026-05-08 20:28 37.40849 -122.14075 4798 ft 265 kts 19°
2026-05-08 20:28 37.42633 -122.13766 4294 ft 259 kts 353°
2026-05-08 20:28 37.44372 -122.14224 3983 ft 247 kts 345°
2026-05-08 20:28 37.45987 -122.14774 3750 ft 233 kts 345°
2026-05-08 20:29 37.47534 -122.15288 3390 ft 224 kts 345°
2026-05-08 20:29 37.49013 -122.15775 3047 ft 215 kts 345°
2026-05-08 20:29 37.50400 -122.16232 2973 ft 200 kts 345°
2026-05-08 20:29 37.51713 -122.16665 2947 ft 187 kts 344°
2026-05-08 20:30 37.52912 -122.17102 2945 ft 172 kts 334°
2026-05-08 20:30 37.53836 -122.17990 2955 ft 168 kts 307°
2026-05-08 20:30 37.54413 -122.19300 2882 ft 168 kts 299°
2026-05-08 20:30 37.54937 -122.20588 2678 ft 167 kts 299°
2026-05-08 20:31 37.55474 -122.21850 2466 ft 155 kts 300°
2026-05-08 20:31 37.55974 -122.23017 2263 ft 149 kts 300°
2026-05-08 20:31 37.56443 -122.24120 2088 ft 135 kts 300°
2026-05-08 20:31 37.56877 -122.25143 1920 ft 130 kts 300°
2026-05-08 20:32 37.57293 -122.26122 1755 ft 127 kts 299°
2026-05-08 20:32 37.57711 -122.27110 1584 ft 126 kts 298°
2026-05-08 20:32 37.58126 -122.28094 1411 ft 126 kts 298°
2026-05-08 20:32 37.58542 -122.29073 1222 ft 127 kts 300°
2026-05-08 20:33 37.58964 -122.30048 1001 ft 125 kts 298°
2026-05-08 20:33 37.59364 -122.31004 817 ft 124 kts 298°
2026-05-08 20:33 37.59776 -122.31976 717 ft 126 kts 298°
2026-05-08 20:33 37.60193 -122.32948 531 ft 124 kts 298°
2026-05-08 20:34 37.60607 -122.33896 355 ft 124 kts 297°
2026-05-08 20:34 37.61005 -122.34862 212 ft 124 kts 296°
2026-05-08 20:34 37.61760 -122.36687 21 ft 90 kts 299°
2026-05-08 20:35 37.61982 -122.37216 26 ft 46 kts 297°
2026-05-08 20:35 37.62081 -122.37454 28 ft 25 kts 297°
2026-05-08 20:35 37.62161 -122.37663 31 ft 27 kts 291°
2026-05-08 20:35 37.62206 -122.37888 34 ft 18 kts 278°
2026-05-08 20:36 37.62222 -122.38058 36 ft 19 kts 276°
2026-05-08 20:36 37.62225 -122.38235 37 ft 18 kts 265°
2026-05-08 20:36 37.62139 -122.38317 38 ft 17 kts 199°
2026-05-08 20:36 37.62049 -122.38380 39 ft 12 kts 258°
2026-05-08 20:37 37.62081 -122.38480 39 ft 14 kts 300°
2026-05-08 20:37 37.62139 -122.38615 38 ft 19 kts 297°
2026-05-08 20:37 37.62199 -122.38760 37 ft 17 kts 298°
2026-05-08 20:37 37.62252 -122.38886 37 ft 16 kts 295°
2026-05-08 20:38 37.62249 -122.39009 36 ft 15 kts 253°
2026-05-08 20:38 37.62190 -122.39125 37 ft 17 kts 215°
2026-05-08 20:38 37.62091 -122.39195 38 ft 16 kts 206°
2026-05-08 20:38 37.62019 -122.39239 38 ft 9 kts 200°
2026-05-08 20:39 37.61968 -122.39228 39 ft 8 kts 162°
2026-05-08 20:39 37.61925 -122.39239 39 ft 4 kts 208°
2026-05-08 20:39 37.61904 -122.39253 39 ft 2 kts 208°
2026-05-08 20:39 37.61898 -122.39256 39 ft 0 kts 209°